Showing default

HGS 1 (ASIASAT 3), 25126

Orbit data source: Space-Track

HGS 1 (ASIASAT 3), 25126 is a payload satellite owned by Asiasat (US) in GEO that was launched on Wed, 24 Dec 1997 UTC via a PROTON-K/DM-2M launch vehicle from the Tyuratam Missile And Space Complex (TTMTR). Payload-class satellites include a variety of spacecraft equipped with specific instruments for various scientific and technological missions. These include communications satellites like Starlink; space stations such as the ISS; scientific satellites like the Hubble; Earth observation satellites from companies like Planet Labs, Umbra, and HawkEye 360; GPS; miniature CubeSats for education and research; and military/defense satellites.

Loading next visibility...
Identifier
25126, 1997-086A
Orbit
GEO
Country
Flag of USUS
Related business
Manufacturer
Hughes
Mission
Non-operational Commercial Communications
Bus & Motor
HS-601HP, R-4D-11-300
Mass
3,480 kg wet, 1,822 kg dry
Launch date (UTC)
1997-12-24 (28 years ago)
Launch vehicle
PROTON-K/DM-2M
Launch site
Tyuratam Missile And Space Complex (TTMTR)
Object type
Payload
Rocket body
Debris
Shape & HBR
Hex Poly + 2 Pan, 13.1 m
Radar Cross Section
32.290 m², Large (>1 m²)

Expand to show TLE details & history
Last TLE update: 1 week ago

TLE from 1 week ago
0 HGS 1 (ASIASAT 3)
1 25126U 97086A   26154.98796051 -.00000245  00000-0  00000-0 0  9991
2 25126  13.1467  31.9119 0051144  47.1451 134.5374  1.00281372105008
Epoch: 2026-06-03T23:42Z
TLE epoch observation values (Epoch: 2026-06-03T23:42:39.788Z)
Latitude
-0.48795°
Longitude
-34.13697°
Altitude
35,936.181 km
Speed
3.064 km/s
True Right ascension
14h 15m 52s
True Declination
0° 29' 15"
Sunlit
Object was in daylight at epoch
Visualization orbit readout
Latitude
Unknown
Longitude
Unknown
Altitude
Unknown
Speed
Unknown
Apparent Right ascension
Unknown
Apparent Declination
Unknown
Sunlit
N/A
Visualization observer readout
Local Sidereal Time
12:19:17
Azimuth
Unknown
Elevation
Unknown
Doppler factor
Unknown
Orbital elements
Apogee altitude
36,000.536 km
Perigee altitude
35,569.258 km
Semi-major axis
42,163.034 km
Eccentricity
0.00511
Inclination
13.1467°
RAAN
31.9119°
Arg. of periapsis
47.1451°
True anomaly
134.95328°
Mean anomaly
134.5374°
Eccentric anomaly
134.74552°
Mean motion
0.25069 °/min
Orbital period
1,436.01 mins
BSTAR
0
Loading maneuver chart data...
Computing Atmospheric mass density...
Loading historical data...
Loading historical data...
Loading historical data...
Loading historical data...
Loading historical data...
Loading historical data...
Loading historical data...
Other satellites on launch #86 in the year 1997 (1997-12-24 UTC)

Documentation

Showing up to 5 results
|